Location: Eppenbrunn
(49.1158°N, 7.5601°E)
Time: 16:22:51
(UTC+00:00)

IGS 5A - Pass Details

Date: 13 August 2020
Orbit: 583 x 588 km, 97.6° (Epoch: 26 September)

Event Time Altitude Azimuth Distance (km) Brightness Sun altitude
Exits shadow 20:15:53 18° 153° (SSE) 1,470 4.9 -12.9°
Maximum altitude 20:18:54 68° 74° (ENE) 639 3.5 -13.3°
Drops below altitude 10° 20:23:03 10° 351° (N) 1,927 6.9 -13.8°
Sets 20:25:14 0° 349° (N) 2,833 7.9 -14.1°
